owner,sensor,date,latitude,longitude,vertical_datum,sea_water_practical_salinity,qcFlag 
SCCF RECON,ioos:station:SCCF:53:1,2009-09-01T00:00:00Z,26.6493,-81.8810,2.091,1.25,1111122 
SCCF RECON,ioos:station:SCCF:53:1,2009-09-01T01:00:00Z,26.6493,-81.8810,2.05,1.19,1111122 
SCCF RECON,ioos:station:SCCF:53:1,2009-09-01T02:00:00Z,26.6493,-81.8810,2.04,1.97,1111122 
SCCF RECON,ioos:station:SCCF:53:1,2009-09-01T03:00:00Z,26.6493,-81.8810,2.07,2.84,1111122 
SCCF RECON,ioos:station:SCCF:53:1,2009-09-01T04:00:00Z,26.6493,-81.8810,2.11,3.79,1111122 
SCCF RECON,ioos:station:SCCF:53:1,2009-09-01T05:00:00Z,26.6493,-81.8810,2.16,3.72,1111122 
SCCF RECON,ioos:station:SCCF:53:1,2009-09-01T06:00:00Z,26.6493,-81.8810,2.2,3.84,1111122 
SCCF RECON,ioos:station:SCCF:53:1,2009-09-01T07:00:00Z,26.6493,-81.8810,2.23,3.82,1111122 
SCCF RECON,ioos:station:SCCF:53:1,2009-09-01T08:00:00Z,26.6493,-81.8810,2.25,3.79,1111122 
SCCF RECON,ioos:station:SCCF:53:1,2009-09-01T09:00:00Z,26.6493,-81.8810,2.23,3.49,1111122 
SCCF RECON,ioos:station:SCCF:53:1,2009-09-01T10:00:00Z,26.6493,-81.8810,2.19,3.46,1111122 
SCCF RECON,ioos:station:SCCF:53:1,2009-09-01T11:00:00Z,26.6493,-81.8810,2.165,3.27,1111122 
SCCF RECON,ioos:station:SCCF:53:1,2009-09-01T12:00:00Z,26.6493,-81.8810,2.14,3.57,1111122 
SCCF RECON,ioos:station:SCCF:53:1,2009-09-01T13:00:00Z,26.6493,-81.8810,2.162,3.81,1111122 
SCCF RECON,ioos:station:SCCF:53:1,2009-09-01T14:00:00Z,26.6493,-81.8810,2.23,3.82,1111122 
SCCF RECON,ioos:station:SCCF:53:1,2009-09-01T15:00:00Z,26.6493,-81.8810,2.3,3.82,1111122 
SCCF RECON,ioos:station:SCCF:53:1,2009-09-01T16:00:00Z,26.6493,-81.8810,2.357,3.79,1111122 
SCCF RECON,ioos:station:SCCF:53:1,2009-09-01T17:00:00Z,26.6493,-81.8810,2.411,3.74,1111122 
SCCF RECON,ioos:station:SCCF:53:1,2009-09-01T18:00:00Z,26.6493,-81.8810,2.46,3.75,1111122 
SCCF RECON,ioos:station:SCCF:53:1,2009-09-01T19:00:00Z,26.6493,-81.8810,2.45,3.75,1111122 
SCCF RECON,ioos:station:SCCF:53:1,2009-09-01T20:00:00Z,26.6493,-81.8810,2.388,2.88,1111122 
SCCF RECON,ioos:station:SCCF:53:1,2009-09-01T21:00:00Z,26.6493,-81.8810,2.32,2.58,1111122 
SCCF RECON,ioos:station:SCCF:53:1,2009-09-01T22:00:00Z,26.6493,-81.8810,2.259,2.14,1111122 
SCCF RECON,ioos:station:SCCF:53:1,2009-09-01T23:00:00Z,26.6493,-81.8810,2.209,1.39,1111122 
SCCF RECON,ioos:station:SCCF:53:1,2009-09-02T00:00:00Z,26.6493,-81.8810,2.15,1.07,1111122 
SCCF RECON,ioos:station:SCCF:53:1,2009-09-02T01:00:00Z,26.6493,-81.8810,2.103,1.31,1111122 
SCCF RECON,ioos:station:SCCF:53:1,2009-09-02T02:00:00Z,26.6493,-81.8810,2.07,0.76,1111122 
SCCF RECON,ioos:station:SCCF:53:1,2009-09-02T03:00:00Z,26.6493,-81.8810,2.08,1.44,1111122 
SCCF RECON,ioos:station:SCCF:53:1,2009-09-02T04:00:00Z,26.6493,-81.8810,2.13,2.57,1111122 
SCCF RECON,ioos:station:SCCF:53:1,2009-09-02T05:00:00Z,26.6493,-81.8810,2.18,3.18,1111122 
SCCF RECON,ioos:station:SCCF:53:1,2009-09-02T06:00:00Z,26.6493,-81.8810,2.24,3.1,1111122 
SCCF RECON,ioos:station:SCCF:53:1,2009-09-02T07:00:00Z,26.6493,-81.8810,2.29,3.28,1111122 
SCCF RECON,ioos:station:SCCF:53:1,2009-09-02T08:00:00Z,26.6493,-81.8810,2.31,3.09,1111122 
SCCF RECON,ioos:station:SCCF:53:1,2009-09-02T09:00:00Z,26.6493,-81.8810,2.3,2.93,1111122 
SCCF RECON,ioos:station:SCCF:53:1,2009-09-02T10:00:00Z,26.6493,-81.8810,2.25,2.03,1111122 
SCCF RECON,ioos:station:SCCF:53:1,2009-09-02T11:00:00Z,26.6493,-81.8810,2.21,1.64,1111122 
SCCF RECON,ioos:station:SCCF:53:1,2009-09-02T12:00:00Z,26.6493,-81.8810,2.19,2.54,1111122 
SCCF RECON,ioos:station:SCCF:53:1,2009-09-02T13:00:00Z,26.6493,-81.8810,2.183,2.87,1111122 
SCCF RECON,ioos:station:SCCF:53:1,2009-09-02T14:00:00Z,26.6493,-81.8810,2.22,2.91,1111122 
SCCF RECON,ioos:station:SCCF:53:1,2009-09-02T15:00:00Z,26.6493,-81.8810,2.282,3.13,1111122 
SCCF RECON,ioos:station:SCCF:53:1,2009-09-02T16:00:00Z,26.6493,-81.8810,2.34,2.89,1111122 
SCCF RECON,ioos:station:SCCF:53:1,2009-09-02T17:00:00Z,26.6493,-81.8810,2.4,2.83,1111122 
SCCF RECON,ioos:station:SCCF:53:1,2009-09-02T18:00:00Z,26.6493,-81.8810,2.46,2.74,1111122 
SCCF RECON,ioos:station:SCCF:53:1,2009-09-02T19:00:00Z,26.6493,-81.8810,2.477,3.42,1111122 
SCCF RECON,ioos:station:SCCF:53:1,2009-09-02T20:00:00Z,26.6493,-81.8810,2.434,2.59,1111122 
SCCF RECON,ioos:station:SCCF:53:1,2009-09-02T21:00:00Z,26.6493,-81.8810,2.37,2.31,1111122 
SCCF RECON,ioos:station:SCCF:53:1,2009-09-02T22:00:00Z,26.6493,-81.8810,2.31,2.11,1111122 
SCCF RECON,ioos:station:SCCF:53:1,2009-09-02T23:00:00Z,26.6493,-81.8810,2.25,1.69,1111122 
SCCF RECON,ioos:station:SCCF:53:1,2009-09-03T00:00:00Z,26.6493,-81.8810,2.199,1.08,1111122 
SCCF RECON,ioos:station:SCCF:53:1,2009-09-03T01:00:00Z,26.6493,-81.8810,2.15,0.76,1111122 
SCCF RECON,ioos:station:SCCF:53:1,2009-09-03T02:00:00Z,26.6493,-81.8810,2.11,0.55,1111122 
SCCF RECON,ioos:station:SCCF:53:1,2009-09-03T03:00:00Z,26.6493,-81.8810,2.11,0.41,1111122 
SCCF RECON,ioos:station:SCCF:53:1,2009-09-03T04:00:00Z,26.6493,-81.8810,2.16,0.43,1111122 
SCCF RECON,ioos:station:SCCF:53:1,2009-09-03T05:00:00Z,26.6493,-81.8810,2.2,1.05,1111122 
SCCF RECON,ioos:station:SCCF:53:1,2009-09-03T06:00:00Z,26.6493,-81.8810,2.26,1.57,1111122 
SCCF RECON,ioos:station:SCCF:53:1,2009-09-03T07:00:00Z,26.6493,-81.8810,2.31,1.89,1111122 
SCCF RECON,ioos:station:SCCF:53:1,2009-09-03T08:00:00Z,26.6493,-81.8810,2.33,1.88,1111122 
SCCF RECON,ioos:station:SCCF:53:1,2009-09-03T09:00:00Z,26.6493,-81.8810,2.33,1.83,1111122 
SCCF RECON,ioos:station:SCCF:53:1,2009-09-03T10:00:00Z,26.6493,-81.8810,2.3,1.81,1111122 
SCCF RECON,ioos:station:SCCF:53:1,2009-09-03T11:00:00Z,26.6493,-81.8810,2.25,1.33,1111122 
SCCF RECON,ioos:station:SCCF:53:1,2009-09-03T12:00:00Z,26.6493,-81.8810,2.2,1.44,1111122 
SCCF RECON,ioos:station:SCCF:53:1,2009-09-03T13:00:00Z,26.6493,-81.8810,2.168,0.88,1111122 
SCCF RECON,ioos:station:SCCF:53:1,2009-09-03T14:00:00Z,26.6493,-81.8810,2.15,1.15,1111122 
SCCF RECON,ioos:station:SCCF:53:1,2009-09-03T15:00:00Z,26.6493,-81.8810,2.202,1.85,1111122 
SCCF RECON,ioos:station:SCCF:53:1,2009-09-03T16:00:00Z,26.6493,-81.8810,2.28,1.96,1111122 
SCCF RECON,ioos:station:SCCF:53:1,2009-09-03T17:00:00Z,26.6493,-81.8810,2.408,1.89,1111122 
SCCF RECON,ioos:station:SCCF:53:1,2009-09-03T18:00:00Z,26.6493,-81.8810,2.46,1.99,1111122 
SCCF RECON,ioos:station:SCCF:53:1,2009-09-03T19:00:00Z,26.6493,-81.8810,2.5,2.03,1111122 
SCCF RECON,ioos:station:SCCF:53:1,2009-09-03T20:00:00Z,26.6493,-81.8810,2.48,1.87,1111122 
SCCF RECON,ioos:station:SCCF:53:1,2009-09-03T21:00:00Z,26.6493,-81.8810,2.4,1.69,1111122 
SCCF RECON,ioos:station:SCCF:53:1,2009-09-03T22:00:00Z,26.6493,-81.8810,2.34,1.51,1111122 
SCCF RECON,ioos:station:SCCF:53:1,2009-09-03T23:00:00Z,26.6493,-81.8810,2.281,0.9,1111122 
SCCF RECON,ioos:station:SCCF:53:1,2009-09-04T00:00:00Z,26.6493,-81.8810,2.23,0.55,1111122 
SCCF RECON,ioos:station:SCCF:53:1,2009-09-04T01:00:00Z,26.6493,-81.8810,2.178,0.43,1111122 
SCCF RECON,ioos:station:SCCF:53:1,2009-09-04T02:00:00Z,26.6493,-81.8810,2.14,0.35,1111122 
SCCF RECON,ioos:station:SCCF:53:1,2009-09-04T03:00:00Z,26.6493,-81.8810,2.12,0.27,1111122 
SCCF RECON,ioos:station:SCCF:53:1,2009-09-04T04:00:00Z,26.6493,-81.8810,2.15,0.28,1111122 
SCCF RECON,ioos:station:SCCF:53:1,2009-09-04T05:00:00Z,26.6493,-81.8810,2.21,0.3,1111122 
SCCF RECON,ioos:station:SCCF:53:1,2009-09-04T06:00:00Z,26.6493,-81.8810,2.264,0.46,1111122 
SCCF RECON,ioos:station:SCCF:53:1,2009-09-04T07:00:00Z,26.6493,-81.8810,2.33,1.25,1111122 
SCCF RECON,ioos:station:SCCF:53:1,2009-09-04T08:00:00Z,26.6493,-81.8810,2.38,1.63,1111122 
SCCF RECON,ioos:station:SCCF:53:1,2009-09-04T09:00:00Z,26.6493,-81.8810,2.38,1.34,1111122 
SCCF RECON,ioos:station:SCCF:53:1,2009-09-04T10:00:00Z,26.6493,-81.8810,2.34,0.94,1111122 
SCCF RECON,ioos:station:SCCF:53:1,2009-09-04T11:00:00Z,26.6493,-81.8810,2.28,0.64,1111122 
SCCF RECON,ioos:station:SCCF:53:1,2009-09-04T12:00:00Z,26.6493,-81.8810,2.239,0.37,1111122 
SCCF RECON,ioos:station:SCCF:53:1,2009-09-04T13:00:00Z,26.6493,-81.8810,2.191,0.29,1111122 
SCCF RECON,ioos:station:SCCF:53:1,2009-09-04T14:00:00Z,26.6493,-81.8810,2.16,0.28,1111122 
SCCF RECON,ioos:station:SCCF:53:1,2009-09-04T15:00:00Z,26.6493,-81.8810,2.168,0.3,1111122 
SCCF RECON,ioos:station:SCCF:53:1,2009-09-04T16:00:00Z,26.6493,-81.8810,2.244,0.32,1111122 
SCCF RECON,ioos:station:SCCF:53:1,2009-09-04T17:00:00Z,26.6493,-81.8810,2.31,0.78,1111122 
SCCF RECON,ioos:station:SCCF:53:1,2009-09-04T18:00:00Z,26.6493,-81.8810,2.37,1.27,1111122 
SCCF RECON,ioos:station:SCCF:53:1,2009-09-04T19:00:00Z,26.6493,-81.8810,2.438,1.22,1111122 
SCCF RECON,ioos:station:SCCF:53:1,2009-09-04T20:00:00Z,26.6493,-81.8810,2.499,1.28,1111122 
SCCF RECON,ioos:station:SCCF:53:1,2009-09-04T21:00:00Z,26.6493,-81.8810,2.489,1.38,1111122 
SCCF RECON,ioos:station:SCCF:53:1,2009-09-04T22:00:00Z,26.6493,-81.8810,2.429,1.29,1111122 
SCCF RECON,ioos:station:SCCF:53:1,2009-09-04T23:00:00Z,26.6493,-81.8810,2.37,0.77,1111122 
SCCF RECON,ioos:station:SCCF:53:1,2009-09-05T00:00:00Z,26.6493,-81.8810,2.31,0.46,1111122 
SCCF RECON,ioos:station:SCCF:53:1,2009-09-05T01:00:00Z,26.6493,-81.8810,2.26,0.32,1111122 
SCCF RECON,ioos:station:SCCF:53:1,2009-09-05T02:00:00Z,26.6493,-81.8810,2.21,0.29,1111122 
SCCF RECON,ioos:station:SCCF:53:1,2009-09-05T03:00:00Z,26.6493,-81.8810,2.17,0.28,1111122 
SCCF RECON,ioos:station:SCCF:53:1,2009-09-05T04:00:00Z,26.6493,-81.8810,2.16,0.28,1111122 
SCCF RECON,ioos:station:SCCF:53:1,2009-09-05T05:00:00Z,26.6493,-81.8810,2.22,0.28,1111122 
SCCF RECON,ioos:station:SCCF:53:1,2009-09-05T06:00:00Z,26.6493,-81.8810,2.28,0.29,1111122 
SCCF RECON,ioos:station:SCCF:53:1,2009-09-05T07:00:00Z,26.6493,-81.8810,2.34,0.3,1111122 
SCCF RECON,ioos:station:SCCF:53:1,2009-09-05T08:00:00Z,26.6493,-81.8810,2.39,0.32,1111122 
SCCF RECON,ioos:station:SCCF:53:1,2009-09-05T09:00:00Z,26.6493,-81.8810,2.4,0.46,1111122 
SCCF RECON,ioos:station:SCCF:53:1,2009-09-05T10:00:00Z,26.6493,-81.8810,2.38,0.35,1111122 
SCCF RECON,ioos:station:SCCF:53:1,2009-09-05T11:00:00Z,26.6493,-81.8810,2.326,0.35,1111122 
SCCF RECON,ioos:station:SCCF:53:1,2009-09-05T12:00:00Z,26.6493,-81.8810,2.28,0.28,1111122 
SCCF RECON,ioos:station:SCCF:53:1,2009-09-05T13:00:00Z,26.6493,-81.8810,2.228,0.28,1111122 
SCCF RECON,ioos:station:SCCF:53:1,2009-09-05T14:00:00Z,26.6493,-81.8810,2.18,0.28,1111122 
SCCF RECON,ioos:station:SCCF:53:1,2009-09-05T15:00:00Z,26.6493,-81.8810,2.15,0.28,1111122 
SCCF RECON,ioos:station:SCCF:53:1,2009-09-05T16:00:00Z,26.6493,-81.8810,2.187,0.28,1111122 
SCCF RECON,ioos:station:SCCF:53:1,2009-09-05T17:00:00Z,26.6493,-81.8810,2.26,0.29,1111122 
SCCF RECON,ioos:station:SCCF:53:1,2009-09-05T18:00:00Z,26.6493,-81.8810,2.318,0.33,1111122 
SCCF RECON,ioos:station:SCCF:53:1,2009-09-05T19:00:00Z,26.6493,-81.8810,2.39,0.38,1111122 
SCCF RECON,ioos:station:SCCF:53:1,2009-09-05T20:00:00Z,26.6493,-81.8810,2.45,0.39,1111122 
SCCF RECON,ioos:station:SCCF:53:1,2009-09-05T21:00:00Z,26.6493,-81.8810,2.494,0.41,1111122 
SCCF RECON,ioos:station:SCCF:53:1,2009-09-05T22:00:00Z,26.6493,-81.8810,2.47,0.4,1111122 
SCCF RECON,ioos:station:SCCF:53:1,2009-09-05T23:00:00Z,26.6493,-81.8810,2.4,0.34,1111122 
SCCF RECON,ioos:station:SCCF:53:1,2009-09-06T00:00:00Z,26.6493,-81.8810,2.34,0.28,1111122 
SCCF RECON,ioos:station:SCCF:53:1,2009-09-06T01:00:00Z,26.6493,-81.8810,2.28,0.29,1111122 
SCCF RECON,ioos:station:SCCF:53:1,2009-09-06T02:00:00Z,26.6493,-81.8810,2.23,0.28,1111122 
SCCF RECON,ioos:station:SCCF:53:1,2009-09-06T03:00:00Z,26.6493,-81.8810,2.18,0.28,1111122 
SCCF RECON,ioos:station:SCCF:53:1,2009-09-06T04:00:00Z,26.6493,-81.8810,2.16,0.28,1111122 
SCCF RECON,ioos:station:SCCF:53:1,2009-09-06T05:00:00Z,26.6493,-81.8810,2.23,0.28,1111122 
SCCF RECON,ioos:station:SCCF:53:1,2009-09-06T06:00:00Z,26.6493,-81.8810,2.29,0.29,1111122 
SCCF RECON,ioos:station:SCCF:53:1,2009-09-06T07:00:00Z,26.6493,-81.8810,2.34,0.28,1111122 
SCCF RECON,ioos:station:SCCF:53:1,2009-09-06T08:00:00Z,26.6493,-81.8810,2.4,0.29,1111122 
SCCF RECON,ioos:station:SCCF:53:1,2009-09-06T09:00:00Z,26.6493,-81.8810,2.43,0.3,1111122 
SCCF RECON,ioos:station:SCCF:53:1,2009-09-06T10:00:00Z,26.6493,-81.8810,2.41,0.3,1111122 
SCCF RECON,ioos:station:SCCF:53:1,2009-09-06T11:00:00Z,26.6493,-81.8810,2.358,0.29,1111122 
SCCF RECON,ioos:station:SCCF:53:1,2009-09-06T12:00:00Z,26.6493,-81.8810,2.3,0.28,1111122 
SCCF RECON,ioos:station:SCCF:53:1,2009-09-06T13:00:00Z,26.6493,-81.8810,2.25,0.28,1111122 
SCCF RECON,ioos:station:SCCF:53:1,2009-09-06T14:00:00Z,26.6493,-81.8810,2.195,0.28,1111122 
SCCF RECON,ioos:station:SCCF:53:1,2009-09-06T15:00:00Z,26.6493,-81.8810,2.151,0.28,1111122 
SCCF RECON,ioos:station:SCCF:53:1,2009-09-06T16:00:00Z,26.6493,-81.8810,2.123,0.28,1111122 
SCCF RECON,ioos:station:SCCF:53:1,2009-09-06T17:00:00Z,26.6493,-81.8810,2.174,0.28,1111122 
SCCF RECON,ioos:station:SCCF:53:1,2009-09-06T18:00:00Z,26.6493,-81.8810,2.243,0.28,1111122 
SCCF RECON,ioos:station:SCCF:53:1,2009-09-06T19:00:00Z,26.6493,-81.8810,2.297,0.28,1111122 
SCCF RECON,ioos:station:SCCF:53:1,2009-09-06T20:00:00Z,26.6493,-81.8810,2.366,0.29,1111122 
SCCF RECON,ioos:station:SCCF:53:1,2009-09-06T21:00:00Z,26.6493,-81.8810,2.425,0.29,1111122 
SCCF RECON,ioos:station:SCCF:53:1,2009-09-06T22:00:00Z,26.6493,-81.8810,2.445,0.29,1111122 
SCCF RECON,ioos:station:SCCF:53:1,2009-09-06T23:00:00Z,26.6493,-81.8810,2.402,0.29,1111122 
SCCF RECON,ioos:station:SCCF:53:1,2009-09-07T00:00:00Z,26.6493,-81.8810,2.34,0.29,1111122 
SCCF RECON,ioos:station:SCCF:53:1,2009-09-07T01:00:00Z,26.6493,-81.8810,2.29,0.28,1111122 
SCCF RECON,ioos:station:SCCF:53:1,2009-09-07T02:00:00Z,26.6493,-81.8810,2.251,0.28,1111122 
SCCF RECON,ioos:station:SCCF:53:1,2009-09-07T03:00:00Z,26.6493,-81.8810,2.2,0.28,1111122 
SCCF RECON,ioos:station:SCCF:53:1,2009-09-07T04:00:00Z,26.6493,-81.8810,2.17,0.28,1111122 
SCCF RECON,ioos:station:SCCF:53:1,2009-09-07T05:00:00Z,26.6493,-81.8810,2.199,0.28,1111122 
SCCF RECON,ioos:station:SCCF:53:1,2009-09-07T06:00:00Z,26.6493,-81.8810,2.267,0.28,1111122 
SCCF RECON,ioos:station:SCCF:53:1,2009-09-07T07:00:00Z,26.6493,-81.8810,2.32,0.28,1111122 
SCCF RECON,ioos:station:SCCF:53:1,2009-09-07T08:00:00Z,26.6493,-81.8810,2.37,0.28,1111122 
SCCF RECON,ioos:station:SCCF:53:1,2009-09-07T09:00:00Z,26.6493,-81.8810,2.42,0.29,1111122 
SCCF RECON,ioos:station:SCCF:53:1,2009-09-07T10:00:00Z,26.6493,-81.8810,2.406,0.29,1111122 
SCCF RECON,ioos:station:SCCF:53:1,2009-09-07T11:00:00Z,26.6493,-81.8810,2.35,0.28,1111122 
SCCF RECON,ioos:station:SCCF:53:1,2009-09-07T12:00:00Z,26.6493,-81.8810,2.29,0.28,1111122 
SCCF RECON,ioos:station:SCCF:53:1,2009-09-07T13:00:00Z,26.6493,-81.8810,2.24,0.28,1111122 
SCCF RECON,ioos:station:SCCF:53:1,2009-09-07T14:00:00Z,26.6493,-81.8810,2.183,0.28,1111122 
SCCF RECON,ioos:station:SCCF:53:1,2009-09-07T15:00:00Z,26.6493,-81.8810,2.13,0.28,1111122 
SCCF RECON,ioos:station:SCCF:53:1,2009-09-07T16:00:00Z,26.6493,-81.8810,2.086,0.29,1111122 
SCCF RECON,ioos:station:SCCF:53:1,2009-09-07T17:00:00Z,26.6493,-81.8810,2.08,0.29,1111122 
SCCF RECON,ioos:station:SCCF:53:1,2009-09-07T18:00:00Z,26.6493,-81.8810,2.139,0.29,1111122 
SCCF RECON,ioos:station:SCCF:53:1,2009-09-07T19:00:00Z,26.6493,-81.8810,2.192,0.29,1111122 
SCCF RECON,ioos:station:SCCF:53:1,2009-09-07T20:00:00Z,26.6493,-81.8810,2.248,0.29,1111122 
SCCF RECON,ioos:station:SCCF:53:1,2009-09-07T21:00:00Z,26.6493,-81.8810,2.312,0.29,1111122 
SCCF RECON,ioos:station:SCCF:53:1,2009-09-07T22:00:00Z,26.6493,-81.8810,2.349,0.29,1111122 
SCCF RECON,ioos:station:SCCF:53:1,2009-09-07T23:00:00Z,26.6493,-81.8810,2.341,0.29,1111122 
SCCF RECON,ioos:station:SCCF:53:1,2009-09-08T00:00:00Z,26.6493,-81.8810,2.31,0.29,1111122 
SCCF RECON,ioos:station:SCCF:53:1,2009-09-08T01:00:00Z,26.6493,-81.8810,2.26,0.29,1111122 
SCCF RECON,ioos:station:SCCF:53:1,2009-09-08T02:00:00Z,26.6493,-81.8810,2.219,0.29,1111122 
SCCF RECON,ioos:station:SCCF:53:1,2009-09-08T03:00:00Z,26.6493,-81.8810,2.18,0.29,1111122 
SCCF RECON,ioos:station:SCCF:53:1,2009-09-08T04:00:00Z,26.6493,-81.8810,2.15,0.29,1111122 
SCCF RECON,ioos:station:SCCF:53:1,2009-09-08T05:00:00Z,26.6493,-81.8810,2.19,0.29,1111122 
SCCF RECON,ioos:station:SCCF:53:1,2009-09-08T06:00:00Z,26.6493,-81.8810,2.25,0.29,1111122 
SCCF RECON,ioos:station:SCCF:53:1,2009-09-08T07:00:00Z,26.6493,-81.8810,2.31,0.29,1111122 
SCCF RECON,ioos:station:SCCF:53:1,2009-09-08T08:00:00Z,26.6493,-81.8810,2.37,0.29,1111122 
SCCF RECON,ioos:station:SCCF:53:1,2009-09-08T09:00:00Z,26.6493,-81.8810,2.425,0.29,1111122 
SCCF RECON,ioos:station:SCCF:53:1,2009-09-08T10:00:00Z,26.6493,-81.8810,2.45,0.29,1111122 
SCCF RECON,ioos:station:SCCF:53:1,2009-09-08T11:00:00Z,26.6493,-81.8810,2.426,0.29,1111122 
SCCF RECON,ioos:station:SCCF:53:1,2009-09-08T12:00:00Z,26.6493,-81.8810,2.366,0.29,1111122 
SCCF RECON,ioos:station:SCCF:53:1,2009-09-08T13:00:00Z,26.6493,-81.8810,2.303,0.29,1111122 
SCCF RECON,ioos:station:SCCF:53:1,2009-09-08T14:00:00Z,26.6493,-81.8810,2.25,0.29,1111122 
SCCF RECON,ioos:station:SCCF:53:1,2009-09-08T15:00:00Z,26.6493,-81.8810,2.192,0.29,1111122 
SCCF RECON,ioos:station:SCCF:53:1,2009-09-08T16:00:00Z,26.6493,-81.8810,2.13,0.29,1111122 
SCCF RECON,ioos:station:SCCF:53:1,2009-09-08T17:00:00Z,26.6493,-81.8810,2.082,0.29,1111122 
SCCF RECON,ioos:station:SCCF:53:1,2009-09-08T18:00:00Z,26.6493,-81.8810,2.087,0.29,1111122 
SCCF RECON,ioos:station:SCCF:53:1,2009-09-08T19:00:00Z,26.6493,-81.8810,2.14,0.29,1111122 
SCCF RECON,ioos:station:SCCF:53:1,2009-09-08T20:00:00Z,26.6493,-81.8810,2.19,0.29,1111122 
SCCF RECON,ioos:station:SCCF:53:1,2009-09-08T21:00:00Z,26.6493,-81.8810,2.251,0.29,1111122 
SCCF RECON,ioos:station:SCCF:53:1,2009-09-08T22:00:00Z,26.6493,-81.8810,2.3,0.29,1111122 
SCCF RECON,ioos:station:SCCF:53:1,2009-09-08T23:00:00Z,26.6493,-81.8810,2.329,0.29,1111122 
SCCF RECON,ioos:station:SCCF:53:1,2009-09-09T00:00:00Z,26.6493,-81.8810,2.321,0.29,1111122 
SCCF RECON,ioos:station:SCCF:53:1,2009-09-09T01:00:00Z,26.6493,-81.8810,2.29,0.29,1111122 
SCCF RECON,ioos:station:SCCF:53:1,2009-09-09T02:00:00Z,26.6493,-81.8810,2.24,0.29,1111122 
SCCF RECON,ioos:station:SCCF:53:1,2009-09-09T03:00:00Z,26.6493,-81.8810,2.2,0.29,1111122 
SCCF RECON,ioos:station:SCCF:53:1,2009-09-09T04:00:00Z,26.6493,-81.8810,2.18,0.29,1111122 
SCCF RECON,ioos:station:SCCF:53:1,2009-09-09T05:00:00Z,26.6493,-81.8810,2.18,0.3,1111122 
SCCF RECON,ioos:station:SCCF:53:1,2009-09-09T06:00:00Z,26.6493,-81.8810,2.22,0.3,1111122 
SCCF RECON,ioos:station:SCCF:53:1,2009-09-09T07:00:00Z,26.6493,-81.8810,2.28,0.29,1111122 
SCCF RECON,ioos:station:SCCF:53:1,2009-09-09T08:00:00Z,26.6493,-81.8810,2.34,0.32,1111122 
SCCF RECON,ioos:station:SCCF:53:1,2009-09-09T09:00:00Z,26.6493,-81.8810,2.409,0.38,1111122 
SCCF RECON,ioos:station:SCCF:53:1,2009-09-09T10:00:00Z,26.6493,-81.8810,2.452,0.4,1111122 
SCCF RECON,ioos:station:SCCF:53:1,2009-09-09T11:00:00Z,26.6493,-81.8810,2.47,0.56,1111122 
SCCF RECON,ioos:station:SCCF:53:1,2009-09-09T12:00:00Z,26.6493,-81.8810,2.42,0.35,1111122 
SCCF RECON,ioos:station:SCCF:53:1,2009-09-09T13:00:00Z,26.6493,-81.8810,2.358,0.35,1111122 
SCCF RECON,ioos:station:SCCF:53:1,2009-09-09T14:00:00Z,26.6493,-81.8810,2.3,0.29,1111122 
SCCF RECON,ioos:station:SCCF:53:1,2009-09-09T15:00:00Z,26.6493,-81.8810,2.236,0.3,1111122 
SCCF RECON,ioos:station:SCCF:53:1,2009-09-09T16:00:00Z,26.6493,-81.8810,2.17,0.3,1111122 
SCCF RECON,ioos:station:SCCF:53:1,2009-09-09T17:00:00Z,26.6493,-81.8810,2.11,0.29,1111122 
SCCF RECON,ioos:station:SCCF:53:1,2009-09-09T18:00:00Z,26.6493,-81.8810,2.06,0.29,1111122 
SCCF RECON,ioos:station:SCCF:53:1,2009-09-09T19:00:00Z,26.6493,-81.8810,2.055,0.29,1111122 
SCCF RECON,ioos:station:SCCF:53:1,2009-09-09T20:00:00Z,26.6493,-81.8810,2.094,0.32,1111122 
SCCF RECON,ioos:station:SCCF:53:1,2009-09-09T21:00:00Z,26.6493,-81.8810,2.141,0.33,1111122 
SCCF RECON,ioos:station:SCCF:53:1,2009-09-09T22:00:00Z,26.6493,-81.8810,2.197,0.37,1111122 
SCCF RECON,ioos:station:SCCF:53:1,2009-09-09T23:00:00Z,26.6493,-81.8810,2.264,0.41,1111122 
SCCF RECON,ioos:station:SCCF:53:1,2009-09-10T00:00:00Z,26.6493,-81.8810,2.293,0.5,1111122 
SCCF RECON,ioos:station:SCCF:53:1,2009-09-10T01:00:00Z,26.6493,-81.8810,2.301,0.51,1111122 
SCCF RECON,ioos:station:SCCF:53:1,2009-09-10T02:00:00Z,26.6493,-81.8810,2.29,0.54,1111122 
SCCF RECON,ioos:station:SCCF:53:1,2009-09-10T03:00:00Z,26.6493,-81.8810,2.259,0.47,1111122 
SCCF RECON,ioos:station:SCCF:53:1,2009-09-10T04:00:00Z,26.6493,-81.8810,2.21,0.43,1111122 
SCCF RECON,ioos:station:SCCF:53:1,2009-09-10T05:00:00Z,26.6493,-81.8810,2.19,0.4,1111122 
SCCF RECON,ioos:station:SCCF:53:1,2009-09-10T06:00:00Z,26.6493,-81.8810,2.2,1.0,1111122 
SCCF RECON,ioos:station:SCCF:53:1,2009-09-10T07:00:00Z,26.6493,-81.8810,2.27,0.63,1111122 
SCCF RECON,ioos:station:SCCF:53:1,2009-09-10T08:00:00Z,26.6493,-81.8810,2.33,0.99,1111122 
SCCF RECON,ioos:station:SCCF:53:1,2009-09-10T09:00:00Z,26.6493,-81.8810,2.38,1.63,1111122 
SCCF RECON,ioos:station:SCCF:53:1,2009-09-10T10:00:00Z,26.6493,-81.8810,2.45,2.09,1111122 
SCCF RECON,ioos:station:SCCF:53:1,2009-09-10T11:00:00Z,26.6493,-81.8810,2.491,2.45,1111122 
SCCF RECON,ioos:station:SCCF:53:1,2009-09-10T12:00:00Z,26.6493,-81.8810,2.51,2.95,1111122 
SCCF RECON,ioos:station:SCCF:53:1,2009-09-10T13:00:00Z,26.6493,-81.8810,2.49,3.03,1111122 
SCCF RECON,ioos:station:SCCF:53:1,2009-09-10T14:00:00Z,26.6493,-81.8810,2.42,1.09,1111122 
SCCF RECON,ioos:station:SCCF:53:1,2009-09-10T15:00:00Z,26.6493,-81.8810,2.35,1.48,1111122 
SCCF RECON,ioos:station:SCCF:53:1,2009-09-10T16:00:00Z,26.6493,-81.8810,2.29,0.9,1111122 
SCCF RECON,ioos:station:SCCF:53:1,2009-09-10T17:00:00Z,26.6493,-81.8810,2.221,0.88,1111122 
SCCF RECON,ioos:station:SCCF:53:1,2009-09-10T18:00:00Z,26.6493,-81.8810,2.17,0.78,1111122 
SCCF RECON,ioos:station:SCCF:53:1,2009-09-10T19:00:00Z,26.6493,-81.8810,2.111,1.11,1111122 
SCCF RECON,ioos:station:SCCF:53:1,2009-09-10T20:00:00Z,26.6493,-81.8810,2.11,1.7,1111122 
SCCF RECON,ioos:station:SCCF:53:1,2009-09-10T21:00:00Z,26.6493,-81.8810,2.152,1.93,1111122 
SCCF RECON,ioos:station:SCCF:53:1,2009-09-10T22:00:00Z,26.6493,-81.8810,2.228,1.17,1111122 
SCCF RECON,ioos:station:SCCF:53:1,2009-09-10T23:00:00Z,26.6493,-81.8810,2.285,1.24,1111122 
SCCF RECON,ioos:station:SCCF:53:1,2009-09-11T00:00:00Z,26.6493,-81.8810,2.32,1.67,1111122 
SCCF RECON,ioos:station:SCCF:53:1,2009-09-11T01:00:00Z,26.6493,-81.8810,2.36,1.66,1111122 
SCCF RECON,ioos:station:SCCF:53:1,2009-09-11T02:00:00Z,26.6493,-81.8810,2.36,1.33,1111122 
SCCF RECON,ioos:station:SCCF:53:1,2009-09-11T03:00:00Z,26.6493,-81.8810,2.34,1.03,1111122 
SCCF RECON,ioos:station:SCCF:53:1,2009-09-11T04:00:00Z,26.6493,-81.8810,2.35,1.69,1111122 
SCCF RECON,ioos:station:SCCF:53:1,2009-09-11T05:00:00Z,26.6493,-81.8810,2.32,1.86,1111122 
SCCF RECON,ioos:station:SCCF:53:1,2009-09-11T06:00:00Z,26.6493,-81.8810,2.31,2.06,1111122 
SCCF RECON,ioos:station:SCCF:53:1,2009-09-11T07:00:00Z,26.6493,-81.8810,2.33,2.37,1111122 
SCCF RECON,ioos:station:SCCF:53:1,2009-09-11T08:00:00Z,26.6493,-81.8810,2.38,2.63,1111122 
SCCF RECON,ioos:station:SCCF:53:1,2009-09-11T09:00:00Z,26.6493,-81.8810,2.44,2.47,1111122 
SCCF RECON,ioos:station:SCCF:53:1,2009-09-11T10:00:00Z,26.6493,-81.8810,2.49,3.09,1111122 
SCCF RECON,ioos:station:SCCF:53:1,2009-09-11T11:00:00Z,26.6493,-81.8810,2.538,3.45,1111122 
SCCF RECON,ioos:station:SCCF:53:1,2009-09-11T12:00:00Z,26.6493,-81.8810,2.56,4.14,1111122 
SCCF RECON,ioos:station:SCCF:53:1,2009-09-11T13:00:00Z,26.6493,-81.8810,2.56,3.53,1111122 
SCCF RECON,ioos:station:SCCF:53:1,2009-09-11T14:00:00Z,26.6493,-81.8810,2.51,3.84,1111122 
SCCF RECON,ioos:station:SCCF:53:1,2009-09-11T15:00:00Z,26.6493,-81.8810,2.434,2.62,1111122 
SCCF RECON,ioos:station:SCCF:53:1,2009-09-11T16:00:00Z,26.6493,-81.8810,2.37,3.62,1111122 
SCCF RECON,ioos:station:SCCF:53:1,2009-09-11T17:00:00Z,26.6493,-81.8810,2.3,3.51,1111122 
SCCF RECON,ioos:station:SCCF:53:1,2009-09-11T18:00:00Z,26.6493,-81.8810,2.232,3.74,1111122 
SCCF RECON,ioos:station:SCCF:53:1,2009-09-11T19:00:00Z,26.6493,-81.8810,2.194,2.74,1111122 
SCCF RECON,ioos:station:SCCF:53:1,2009-09-11T20:00:00Z,26.6493,-81.8810,2.14,1.19,1111122 
SCCF RECON,ioos:station:SCCF:53:1,2009-09-11T21:00:00Z,26.6493,-81.8810,2.14,1.17,1111122 